Shelton, WA
on Tuesday, November 6, 2012

Tuesday
Previous Day Next Day
Daily Summary
 ActualAverage (KOLM)Record (KOLM)
Temperature
Mean Temperature °F 46°F  
Max Temperature 55°F 53°F 65°F (1999)
Min Temperature 37°F 38°F 19°F (2003)
Degree Days
Heating Degree Days 19 20  
Month to date heating degree days 114  
Since 1 July heating degree days 908  
Cooling Degree Days 0 0  
Month to date cooling degree days 0  
Year to date cooling degree days 106  
Moisture
Dew Point 47°F   
Average Humidity 97    
Maximum Humidity 100    
Minimum Humidity 88    
Precipitation
Precipitation 0.07 in 0.25 in 4.31 in (2006)
Month to date precipitation 1.48  
Year to date precipitation 35.39  
Wind
Wind Speed 4 mph   
Max Wind Speed 17 mph   
Max Gust Speed 26 mph   
Visibility 6 miles   
Events Fog , Rain   

Key: T is trace of precipitation, MM is missing value
Source: NWS Daily Summary
Time(PST)TemperatureDew PointHumidity Pressure Visibility Wind DirectionWind SpeedGust SpeedPrecipitationEvents Conditions
12:53 AM 43.0°F 43.0°F 100% 30.14 in 0.2 miles Calm Calm - N/A Fog Fog
1:53 AM 44.1°F 44.1°F 100% 30.12 in 0.2 miles Calm Calm - N/A Fog Fog
2:53 AM 42.1°F 42.1°F 100% 30.11 in 0.2 miles Calm Calm - N/A Fog Fog
3:53 AM 41.0°F 41.0°F 100% 30.09 in 0.2 miles Calm Calm - N/A Fog Fog
4:53 AM 39.9°F 39.9°F 100% 30.06 in 0.2 miles Calm Calm - N/A Fog Fog
5:53 AM 37.9°F 37.9°F 100% 30.06 in 0.2 miles Calm Calm - N/A Fog Fog
6:28 AM 37.4°F 37.4°F 100% 30.04 in 1.0 miles Calm Calm - N/A   Overcast
6:40 AM 37.4°F 37.4°F 100% 30.04 in 2.0 miles Calm Calm - N/A   Mostly Cloudy
6:53 AM 37.0°F 37.0°F 100% 30.05 in 2.0 miles Calm Calm - N/A   Mostly Cloudy
7:05 AM 37.4°F 37.4°F 100% 30.04 in 1.5 miles Calm Calm - N/A   Overcast
7:15 AM 37.4°F 37.4°F 100% 30.03 in 0.8 miles Calm Calm - N/A   Mist
7:40 AM 37.4°F 37.4°F 100% 30.03 in 1.2 miles Calm Calm - N/A   Scattered Clouds
7:53 AM 39.0°F 39.0°F 100% 30.04 in 1.8 miles Calm Calm - N/A   Partly Cloudy
8:00 AM 39.2°F 39.2°F 100% 30.03 in 2.0 miles Calm Calm - N/A   Clear
8:25 AM 42.8°F 42.8°F 100% 30.03 in 3.0 miles Calm Calm - N/A   Clear
8:53 AM 44.1°F 44.1°F 100% 30.03 in 3.0 miles Calm Calm - N/A   Mostly Cloudy
9:29 AM 46.4°F 44.6°F 93% 30.01 in 6.0 miles Calm Calm - N/A   Overcast
9:53 AM 46.9°F 46.0°F 97% 30.01 in 7.0 miles Calm Calm - N/A   Overcast
10:07 AM 46.4°F 46.4°F 100% 30.00 in 9.0 miles SSE 3.5 mph - N/A   Overcast
10:53 AM 48.9°F 48.0°F 97% 30.00 in 8.0 miles Calm Calm - N/A   Overcast
11:53 AM 52.0°F 51.1°F 97% 29.98 in 9.0 miles SW 8.1 mph - N/A   Overcast
12:03 PM 51.8°F 51.8°F 100% 29.97 in 9.0 miles SW 9.2 mph - N/A   Overcast
12:33 PM 53.6°F 51.8°F 94% 29.96 in 10.0 miles SW 10.4 mph - N/A   Overcast
12:46 PM 55.4°F 51.8°F 88% 29.96 in 10.0 miles WSW 8.1 mph - N/A   Overcast
12:53 PM 55.0°F 52.0°F 89% 29.97 in 10.0 miles WSW 9.2 mph - N/A   Overcast
1:35 PM 53.6°F 50.0°F 88% 29.96 in 5.0 miles West 12.7 mph 18.4 mph N/A   Overcast
1:43 PM 53.6°F 51.8°F 94% 29.97 in 5.0 miles WSW 10.4 mph - N/A   Overcast
1:53 PM 53.1°F 51.1°F 93% 29.97 in 4.0 miles SW 11.5 mph - N/A   Overcast
1:59 PM 53.6°F 51.8°F 94% 29.96 in 2.5 miles SW 11.5 mph - 0.00 in Rain Light Rain
2:10 PM 53.6°F 51.8°F 94% 29.97 in 3.0 miles WSW 5.8 mph - 0.00 in   Overcast
2:20 PM 51.8°F 51.8°F 100% 29.97 in 2.5 miles WSW 9.2 mph - 0.00 in   Overcast
2:53 PM 53.1°F 52.0°F 96% 29.99 in 2.5 miles SW 10.4 mph - 0.01 in   Overcast
3:05 PM 53.6°F 51.8°F 94% 29.98 in 4.0 miles SW 8.1 mph - N/A   Overcast
3:50 PM 53.6°F 51.8°F 94% 29.97 in 8.0 miles WSW 8.1 mph - 0.02 in Rain Light Rain
3:53 PM 53.1°F 52.0°F 96% 29.99 in 9.0 miles WSW 10.4 mph - 0.02 in Rain Light Rain
4:00 PM 53.6°F 51.8°F 94% 29.97 in 10.0 miles SW 8.1 mph - 0.00 in Rain Light Rain
4:10 PM 53.6°F 51.8°F 94% 29.98 in 9.0 miles SSW 8.1 mph - 0.01 in Rain Light Rain
4:49 PM 53.6°F 51.8°F 94% 29.96 in 10.0 miles SW 11.5 mph - 0.03 in Rain Light Rain
4:53 PM 53.1°F 52.0°F 96% 29.97 in 10.0 miles SW 10.4 mph - 0.04 in   Overcast
5:03 PM 53.6°F 51.8°F 94% 29.96 in 10.0 miles SW 10.4 mph - N/A   Overcast
5:15 PM 53.6°F 51.8°F 94% 29.96 in 10.0 miles SW 17.3 mph 26.5 mph N/A   Overcast
5:27 PM 53.6°F 51.8°F 94% 29.96 in 10.0 miles SW 10.4 mph - N/A   Overcast
5:53 PM 52.0°F 51.1°F 97% 29.97 in 10.0 miles SSW 12.7 mph - N/A   Overcast
6:10 PM 51.8°F 51.8°F 100% 29.96 in 9.0 miles SW 12.7 mph - N/A   Overcast
6:23 PM 51.8°F 50.0°F 94% 29.97 in 10.0 miles SW 16.1 mph 21.9 mph N/A   Overcast
6:41 PM 51.8°F 50.0°F 94% 29.97 in 10.0 miles SW 11.5 mph - N/A   Overcast
6:53 PM 51.1°F 50.0°F 96% 29.99 in 10.0 miles SW 11.5 mph - N/A   Overcast
7:20 PM 50.0°F 48.2°F 94% 29.98 in 10.0 miles SW 9.2 mph - N/A   Scattered Clouds
7:53 PM 50.0°F 48.0°F 93% 30.01 in 10.0 miles SW 10.4 mph - N/A   Clear
8:53 PM 48.9°F 46.9°F 93% 30.02 in 10.0 miles SW 9.2 mph - N/A   Clear
9:22 PM 48.2°F 48.2°F 100% 30.02 in 10.0 miles SW 11.5 mph - N/A   Mostly Cloudy
9:29 PM 48.2°F 48.2°F 100% 30.02 in 10.0 miles SSW 10.4 mph - N/A   Scattered Clouds
9:53 PM 48.0°F 46.9°F 96% 30.04 in 10.0 miles SW 8.1 mph - N/A   Clear
10:53 PM 46.9°F 46.0°F 97% 30.04 in 10.0 miles SW 10.4 mph - N/A   Clear
11:53 PM 46.0°F 45.0°F 96% 30.05 in 10.0 miles SW 8.1 mph - N/A   Clear
Moon Phase
Nov. 06 Nov. 06 Nov. 13 Nov. 20 Nov. 28
Sunrise:07:04 AM (PST) Moon Rise:11:38 PM (PST)11/6
Sunset:04:47 PM (PST) Moon Set:12:55 PM (PST)11/6

Copyright © 2014 The Weather Underground, Inc.